Weather History for Port Angeles, WA

Change the Weather History Date:

Sunday, February 17, 2013

  Actual Average Record
Temperature  
Mean Temperature 41 °F -  
Max Temperature 46 °F 47 °F 59 °F (2004)
Min Temperature 35 °F 34 °F 20 °F (1993)
Degree Days  
Heating Degree Days 24    
Moisture  
Dew Point 33 °F    
Average Humidity 74    
Maximum Humidity 92    
Minimum Humidity 65    
Precipitation  
Precipitation 0.00 in - - ()
Sea Level Pressure  
Sea Level Pressure 30.19 in    
Wind  
Wind Speed 7 mph (SW)    
Max Wind Speed 10 mph    
Max Gust Speed -    
Visibility 10 miles    
Events      
Averages and records for this station are not official NWS values.
T = Trace of Precipitation, MM = Missing Value Source: NWS Daily Summary

Daily Weather History Graph

Daily Weather History Graph

Search for Another Location

Airport:

Trip Planner

Search our weather history database for the weather conditions in past years. The results will help you decide how hot, cold, wet, or windy it might be!

Date:

Astronomy

Feb. 17, 2013 Rise Set
Actual Time 7:16 AM PST 5:40 PM PST
Civil Twilight 6:44 AM PST 6:12 PM PST
Nautical Twilight 6:08 AM PST 6:48 PM PST
Astronomical Twilight 5:32 AM PST 7:24 PM PST
Moon 10:36 AM PST (2/17) 1:16 AM PST (2/17)
Length of Visible Light 11h 27m
Length of Day
10h 23m
Waxing Crescent, 50% of the Moon is Illuminated
Feb 17
Waxing Crescent
Feb 17
First Quarter
Feb 25
Full
Mar 4
Last Quarter
Mar 11
New

Hourly Weather History & Observations

Time (PST) Temp. Windchill Dew Point Humidity Pressure Visibility Wind Dir Wind Speed Gust Speed Precip Events Conditions
12:53 AM 41.0 °F 35.2 °F 33.1 °F 73% 30.20 in 10.0 mi West 9.2 mph - N/A   Clear
1:53 AM 39.9 °F 33.4 °F 32.0 °F 73% 30.20 in 10.0 mi West 10.4 mph - N/A   Clear
2:53 AM 39.0 °F 34.0 °F 32.0 °F 76% 30.20 in 10.0 mi WSW 6.9 mph - N/A   Clear
3:53 AM 37.9 °F 30.9 °F 32.0 °F 79% 30.20 in 10.0 mi WSW 10.4 mph - N/A   Clear
4:53 AM 37.0 °F 31.0 °F 30.9 °F 79% 30.20 in 10.0 mi WSW 8.1 mph - N/A   Clear
5:53 AM 37.0 °F 32.4 °F 30.9 °F 79% 30.19 in 10.0 mi WSW 5.8 mph - N/A   Clear
6:53 AM 37.0 °F 30.4 °F 30.0 °F 76% 30.20 in 10.0 mi WSW 9.2 mph - N/A   Clear
7:53 AM 36.0 °F 29.6 °F 30.0 °F 79% 30.21 in 10.0 mi SW 8.1 mph - N/A   Clear
8:53 AM 39.9 °F 36.7 °F 32.0 °F 73% 30.22 in 10.0 mi WSW 4.6 mph - N/A   Clear
9:53 AM 44.1 °F - 33.1 °F 65% 30.22 in 10.0 mi Calm Calm - N/A   Partly Cloudy
10:53 AM 44.1 °F 40.8 °F 34.0 °F 68% 30.22 in 10.0 mi East 5.8 mph - N/A   Partly Cloudy
11:53 AM 45.0 °F 40.1 °F 35.1 °F 68% 30.22 in 10.0 mi East 9.2 mph - N/A   Partly Cloudy
12:53 PM 45.0 °F 41.2 °F 35.1 °F 68% 30.22 in 10.0 mi East 6.9 mph - N/A   Overcast
1:53 PM 45.0 °F 40.6 °F 34.0 °F 65% 30.21 in 10.0 mi East 8.1 mph - N/A   Mostly Cloudy
2:53 PM 46.0 °F 41.4 °F 35.1 °F 66% 30.19 in 10.0 mi SE 9.2 mph - N/A   Clear
3:53 PM 45.0 °F 42.6 °F 35.1 °F 68% 30.19 in 10.0 mi ENE 4.6 mph - N/A   Partly Cloudy
4:53 PM 44.1 °F - 34.0 °F 68% 30.18 in 10.0 mi Calm Calm - N/A   Mostly Cloudy
5:53 PM 43.0 °F 40.3 °F 35.1 °F 74% 30.17 in 10.0 mi ESE 4.6 mph - N/A   Overcast
6:53 PM 42.1 °F - 35.1 °F 76% 30.17 in 10.0 mi Calm Calm - N/A   Overcast
7:53 PM 41.0 °F 39.0 °F 35.1 °F 79% 30.16 in 10.0 mi SW 3.5 mph - N/A   Overcast
9:53 PM 39.9 °F 37.8 °F 35.1 °F 83% 30.14 in 10.0 mi West 3.5 mph - N/A   Overcast
10:53 PM 39.0 °F 35.7 °F 34.0 °F 82% 30.12 in 10.0 mi SW 4.6 mph - N/A   Scattered Clouds
11:53 PM 35.1 °F - 33.1 °F 92% 30.10 in 10.0 mi Calm Calm - N/A   Clear